User: anonymous   Login
Location: Sungai Bunut
(2.6333°N, 113.7333°E)
Time: 17:53:32
(UTC+00:00)
Language:

Cosmos 1782 Rocket - Orbit

View from above orbital plane
View from above orbital plane
View from above satellite
View from above satellite

Ground track
Ground track

The orbit data is extracted from the following two-line orbital elements,

1 16987U 86074B   22023.90344057  .00000189  00000-0  20169-4 0  9997
2 16987  82.5171 175.2894 0019509 117.8102 355.2187 14.83158716886611
Epoch (UTC): 23 January 2022 21:40:57
Eccentricity: 0.0019509
inclination: 82.5171°
perigee height: 606 km
apogee height: 633 km
right ascension of ascending node: 175.2894°
argument of perigee: 117.8102°
revolutions per day: 14.83158716
mean anomaly at epoch: 355.2187°
orbit number at epoch: 88661

The dashed part of the orbit path shows where the satellite is in the earth's shadow,  

DLR